Location: Unspecified
(40.7945°N, 0.0000°E)
Time: 04:16:57
(UTC+00:00)

Courier 1B - Pass Details

Date: 25 January 2021
Orbit: 962 x 1209 km, 28.3° (Epoch: 25 February)

Event Time Altitude Azimuth Distance (km) Brightness Sun altitude
Rises 01:45:54 0° 252° (WSW) 3,671 - -60.4°
Reaches altitude 10° 01:49:01 10° 240° (WSW) 2,702 - -59.9°
Maximum altitude 01:54:12 25° 187° (S) 1,807 - -59.1°
Drops below altitude 10° 01:59:22 10° 133° (SE) 2,690 - -58.4°
Sets 02:02:28 0° 121° (ESE) 3,651 - -57.9°
